Time,TemperatureF,DewpointF,PressureIn,WindDirection,WindDirectionDegrees,WindSpeedMPH,WindSpeedGustMPH,Humidity,HourlyPrecipIn,Conditions,Clouds,dailyrainin,SoftwareType,DateUTC
2013-08-06 00:00:00,68.4,62.0,32.13,North,355,0.0,-999.0,81,-99.99,,,0.00,weatherlink.com 1.10,2013-08-06 04:00:00,
2013-08-06 00:15:00,68.0,62.0,32.13,North,355,0.0,-999.0,82,-99.99,,,0.00,weatherlink.com 1.10,2013-08-06 04:15:00,
2013-08-06 00:30:00,68.0,63.0,32.13,North,355,0.0,-999.0,83,-99.99,,,0.00,weatherlink.com 1.10,2013-08-06 04:30:00,
2013-08-06 00:45:00,68.1,63.0,32.13,North,355,0.0,-999.0,83,-99.99,,,0.00,weatherlink.com 1.10,2013-08-06 04:45:00,
2013-08-06 01:00:00,68.4,63.0,32.13,North,355,0.0,-999.0,83,-99.99,,,0.00,weatherlink.com 1.10,2013-08-06 05:00:00,
2013-08-06 01:15:00,68.7,63.0,32.13,North,355,0.0,-999.0,82,-99.99,,,0.00,weatherlink.com 1.10,2013-08-06 05:15:00,
2013-08-06 01:30:00,69.0,63.0,32.13,North,355,0.0,-999.0,82,-99.99,,,0.00,weatherlink.com 1.10,2013-08-06 05:30:00,
2013-08-06 01:45:00,69.2,64.0,32.13,North,355,0.0,-999.0,82,-99.99,,,0.00,weatherlink.com 1.10,2013-08-06 05:45:00,
2013-08-06 02:00:00,69.2,64.0,32.13,North,355,0.0,-999.0,83,-99.99,,,0.00,weatherlink.com 1.10,2013-08-06 06:00:00,
2013-08-06 02:15:00,69.2,64.0,32.13,North,355,0.0,-999.0,83,-99.99,,,0.00,weatherlink.com 1.10,2013-08-06 06:15:00,
2013-08-06 02:30:00,69.3,64.0,32.13,North,355,0.0,-999.0,84,-99.99,,,0.00,weatherlink.com 1.10,2013-08-06 06:30:00,
2013-08-06 02:44:00,69.5,64.0,32.13,North,355,0.0,-999.0,83,-99.99,,,0.00,weatherlink.com 1.10,2013-08-06 06:44:00,
2013-08-06 02:59:00,69.5,65.0,32.13,North,355,0.0,-999.0,84,-99.99,,,0.00,weatherlink.com 1.10,2013-08-06 06:59:00,
2013-08-06 03:14:00,69.6,65.0,32.13,North,355,0.0,-999.0,84,-99.99,,,0.00,weatherlink.com 1.10,2013-08-06 07:14:00,
2013-08-06 03:30:00,69.7,65.0,32.13,North,355,0.0,-999.0,84,-99.99,,,0.00,weatherlink.com 1.10,2013-08-06 07:30:00,
2013-08-06 03:45:00,69.8,65.0,32.13,North,355,0.0,-999.0,84,-99.99,,,0.00,weatherlink.com 1.10,2013-08-06 07:45:00,
2013-08-06 04:00:00,69.8,65.0,32.13,North,355,0.0,-999.0,85,-99.99,,,0.00,weatherlink.com 1.10,2013-08-06 08:00:00,
2013-08-06 04:15:00,69.9,65.0,32.13,North,355,0.0,-999.0,85,-99.99,,,0.00,weatherlink.com 1.10,2013-08-06 08:15:00,
2013-08-06 04:30:00,69.8,66.0,32.13,North,355,0.0,-999.0,86,-99.99,,,0.00,weatherlink.com 1.10,2013-08-06 08:30:00,
2013-08-06 04:45:00,69.8,66.0,32.13,North,355,0.0,-999.0,86,-99.99,,,0.00,weatherlink.com 1.10,2013-08-06 08:45:00,
2013-08-06 05:00:00,69.8,66.0,32.13,North,355,0.0,-999.0,87,-99.99,,,0.00,weatherlink.com 1.10,2013-08-06 09:00:00,
2013-08-06 05:15:00,69.8,66.0,32.13,North,355,0.0,-999.0,87,-99.99,,,0.00,weatherlink.com 1.10,2013-08-06 09:15:00,
2013-08-06 05:30:00,69.8,66.0,32.13,North,355,0.0,-999.0,88,-99.99,,,0.00,weatherlink.com 1.10,2013-08-06 09:30:00,
2013-08-06 05:45:00,69.9,66.0,32.13,North,355,0.0,-999.0,88,-99.99,,,0.00,weatherlink.com 1.10,2013-08-06 09:45:00,
2013-08-06 06:00:00,69.9,66.0,32.13,North,355,0.0,-999.0,88,-99.99,,,0.00,weatherlink.com 1.10,2013-08-06 10:00:00,
2013-08-06 06:15:00,69.7,66.0,32.13,North,355,0.0,-999.0,89,-99.99,,,0.00,weatherlink.com 1.10,2013-08-06 10:15:00,
2013-08-06 06:30:00,69.5,66.0,32.13,North,355,0.0,-999.0,89,-99.99,,,0.00,weatherlink.com 1.10,2013-08-06 10:30:00,
2013-08-06 06:45:00,69.4,66.0,32.13,North,355,0.0,-999.0,89,-99.99,,,0.00,weatherlink.com 1.10,2013-08-06 10:45:00,
2013-08-06 07:00:00,69.2,66.0,32.13,North,355,0.0,-999.0,88,-99.99,,,0.00,weatherlink.com 1.10,2013-08-06 11:00:00,
2013-08-06 07:15:00,69.1,66.0,32.13,North,355,0.0,-999.0,88,-99.99,,,0.00,weatherlink.com 1.10,2013-08-06 11:15:00,
2013-08-06 07:30:00,69.3,66.0,32.13,North,355,0.0,-999.0,90,-99.99,,,0.01,weatherlink.com 1.10,2013-08-06 11:30:00,
2013-08-06 07:45:00,69.1,67.0,32.13,North,355,0.0,-999.0,92,-99.99,,,0.01,weatherlink.com 1.10,2013-08-06 11:45:00,
2013-08-06 08:00:00,68.7,67.0,32.13,North,355,0.0,-999.0,93,-99.99,,,0.01,weatherlink.com 1.10,2013-08-06 12:00:00,
2013-08-06 08:15:00,68.5,67.0,32.13,North,355,0.0,-999.0,93,-99.99,,,0.01,weatherlink.com 1.10,2013-08-06 12:15:00,
2013-08-06 08:30:00,68.4,66.0,32.13,North,355,0.0,-999.0,93,-99.99,,,0.01,weatherlink.com 1.10,2013-08-06 12:30:00,
2013-08-06 08:45:00,68.5,67.0,32.13,ESE,123,0.0,-999.0,94,-99.99,,,0.01,weatherlink.com 1.10,2013-08-06 12:45:00,
2013-08-06 09:00:00,68.7,67.0,32.13,ENE,57,0.0,-999.0,94,-99.99,,,0.01,weatherlink.com 1.10,2013-08-06 13:00:00,
2013-08-06 09:15:00,68.7,67.0,32.13,ENE,57,0.0,-999.0,94,-99.99,,,0.01,weatherlink.com 1.10,2013-08-06 13:15:00,
2013-08-06 09:30:00,68.6,67.0,32.13,ENE,57,0.0,-999.0,93,-99.99,,,0.02,weatherlink.com 1.10,2013-08-06 13:30:00,
2013-08-06 09:45:00,68.6,67.0,32.13,ENE,57,0.0,-999.0,94,-99.99,,,0.02,weatherlink.com 1.10,2013-08-06 13:45:00,
2013-08-06 10:00:00,68.6,67.0,32.13,ESE,122,0.0,-999.0,94,-99.99,,,0.02,weatherlink.com 1.10,2013-08-06 14:00:00,
2013-08-06 10:15:00,68.6,67.0,32.13,ESE,122,0.0,-999.0,94,-99.99,,,0.02,weatherlink.com 1.10,2013-08-06 14:15:00,
2013-08-06 10:30:00,68.6,67.0,32.13,ESE,123,0.0,-999.0,94,-99.99,,,0.02,weatherlink.com 1.10,2013-08-06 14:30:00,
2013-08-06 10:45:00,68.6,67.0,32.13,SSE,168,0.0,-999.0,94,-99.99,,,0.02,weatherlink.com 1.10,2013-08-06 14:45:00,
2013-08-06 11:00:00,68.8,67.0,32.13,SE,136,0.0,-999.0,93,-99.99,,,0.02,weatherlink.com 1.10,2013-08-06 15:00:00,
2013-08-06 11:15:00,69.1,67.0,32.13,SE,130,0.0,-999.0,94,-99.99,,,0.02,weatherlink.com 1.10,2013-08-06 15:15:00,
2013-08-06 11:30:00,69.2,67.0,32.13,SE,131,0.0,-999.0,93,-99.99,,,0.02,weatherlink.com 1.10,2013-08-06 15:30:00,
2013-08-06 11:45:00,69.5,68.0,32.13,SE,131,0.0,-999.0,93,-99.99,,,0.02,weatherlink.com 1.10,2013-08-06 15:45:00,
2013-08-06 12:00:00,69.9,68.0,32.13,SE,131,0.0,-999.0,92,-99.99,,,0.02,weatherlink.com 1.10,2013-08-06 16:00:00,
2013-08-06 12:15:00,70.1,68.0,32.13,SE,131,0.0,-999.0,92,-99.99,,,0.02,weatherlink.com 1.10,2013-08-06 16:15:00,
2013-08-06 12:30:00,70.4,68.0,32.13,SE,130,0.0,-999.0,91,-99.99,,,0.02,weatherlink.com 1.10,2013-08-06 16:30:00,
2013-08-06 12:45:00,70.8,68.0,32.13,ESE,123,0.0,-999.0,90,-99.99,,,0.02,weatherlink.com 1.10,2013-08-06 16:45:00,
2013-08-06 13:00:00,71.2,68.0,32.13,SE,125,0.0,-999.0,89,-99.99,,,0.02,weatherlink.com 1.10,2013-08-06 17:00:00,
2013-08-06 13:15:00,71.2,68.0,32.13,SE,125,0.0,-999.0,89,-99.99,,,0.02,weatherlink.com 1.10,2013-08-06 17:15:00,
2013-08-06 13:30:00,71.3,68.0,32.13,SE,125,0.0,-999.0,89,-99.99,,,0.02,weatherlink.com 1.10,2013-08-06 17:30:00,
2013-08-06 13:45:00,71.4,68.0,32.13,ESE,109,0.0,-999.0,89,-99.99,,,0.02,weatherlink.com 1.10,2013-08-06 17:45:00,
2013-08-06 14:00:00,71.3,68.0,32.13,ESE,107,0.0,-999.0,88,-99.99,,,0.02,weatherlink.com 1.10,2013-08-06 18:00:00,
2013-08-06 14:15:00,71.5,68.0,32.13,ESE,107,0.0,-999.0,88,-99.99,,,0.02,weatherlink.com 1.10,2013-08-06 18:15:00,
2013-08-06 14:30:00,71.9,68.0,32.13,ESE,107,1.0,-999.0,87,-99.99,,,0.02,weatherlink.com 1.10,2013-08-06 18:30:00,
2013-08-06 14:45:00,72.4,68.0,32.13,East,97,0.0,-999.0,87,-99.99,,,0.02,weatherlink.com 1.10,2013-08-06 18:45:00,
2013-08-06 15:01:00,73.1,69.0,32.13,East,98,0.0,-999.0,86,-99.99,,,0.02,weatherlink.com 1.10,2013-08-06 19:01:00,
2013-08-06 15:16:00,73.1,68.0,32.13,ESE,115,0.0,-999.0,85,-99.99,,,0.02,weatherlink.com 1.10,2013-08-06 19:16:00,
2013-08-06 15:31:00,73.2,69.0,32.13,ESE,115,0.0,-999.0,86,-99.99,,,0.02,weatherlink.com 1.10,2013-08-06 19:31:00,
2013-08-06 15:45:00,73.1,69.0,32.13,ESE,115,0.0,-999.0,86,-99.99,,,0.02,weatherlink.com 1.10,2013-08-06 19:45:00,
2013-08-06 16:00:00,72.6,69.0,32.13,ESE,115,0.0,-999.0,87,-99.99,,,0.02,weatherlink.com 1.10,2013-08-06 20:00:00,
2013-08-06 16:15:00,72.2,68.0,32.13,ESE,114,0.0,-999.0,87,-99.99,,,0.02,weatherlink.com 1.10,2013-08-06 20:15:00,
2013-08-06 16:30:00,72.0,68.0,32.13,ESE,114,0.0,-999.0,88,-99.99,,,0.02,weatherlink.com 1.10,2013-08-06 20:30:00,
2013-08-06 16:46:00,71.8,68.0,32.13,ESE,112,0.0,-999.0,88,-99.99,,,0.02,weatherlink.com 1.10,2013-08-06 20:46:00,
2013-08-06 17:01:00,71.6,69.0,32.13,ESE,112,0.0,-999.0,90,-99.99,,,0.02,weatherlink.com 1.10,2013-08-06 21:01:00,
2013-08-06 17:16:00,71.7,69.0,32.13,ESE,111,0.0,-999.0,92,-99.99,,,0.02,weatherlink.com 1.10,2013-08-06 21:16:00,
2013-08-06 17:31:00,71.5,69.0,32.13,ESE,112,0.0,-999.0,91,-99.99,,,0.02,weatherlink.com 1.10,2013-08-06 21:31:00,
2013-08-06 17:46:00,71.4,69.0,32.13,ESE,112,0.0,-999.0,91,-99.99,,,0.02,weatherlink.com 1.10,2013-08-06 21:46:00,
2013-08-06 18:01:00,71.3,69.0,32.13,ESE,112,0.0,-999.0,91,-99.99,,,0.02,weatherlink.com 1.10,2013-08-06 22:01:00,
2013-08-06 18:16:00,71.3,69.0,32.13,ESE,111,0.0,-999.0,91,-99.99,,,0.02,weatherlink.com 1.10,2013-08-06 22:16:00,
2013-08-06 18:31:00,71.5,69.0,32.13,ESE,111,0.0,-999.0,91,-99.99,,,0.02,weatherlink.com 1.10,2013-08-06 22:31:00,
2013-08-06 18:45:00,71.6,69.0,32.13,ESE,112,0.0,-999.0,91,-99.99,,,0.02,weatherlink.com 1.10,2013-08-06 22:45:00,
2013-08-06 19:00:00,71.8,69.0,32.13,ESE,113,0.0,-999.0,90,-99.99,,,0.02,weatherlink.com 1.10,2013-08-06 23:00:00,
2013-08-06 19:15:00,71.9,69.0,32.13,ESE,113,0.0,-999.0,90,-99.99,,,0.02,weatherlink.com 1.10,2013-08-06 23:15:00,
2013-08-06 19:30:00,72.0,69.0,32.13,ESE,113,0.0,-999.0,89,-99.99,,,0.02,weatherlink.com 1.10,2013-08-06 23:30:00,
2013-08-06 19:46:00,71.9,69.0,32.13,ESE,111,0.0,-999.0,89,-99.99,,,0.02,weatherlink.com 1.10,2013-08-06 23:46:00,
2013-08-06 20:01:00,71.7,68.0,32.13,ESE,112,0.0,-999.0,88,-99.99,,,0.02,weatherlink.com 1.10,2013-08-07 00:01:00,
2013-08-06 20:16:00,71.5,68.0,32.13,ESE,112,0.0,-999.0,89,-99.99,,,0.02,weatherlink.com 1.10,2013-08-07 00:16:00,
2013-08-06 20:31:00,71.3,68.0,32.13,ESE,112,0.0,-999.0,89,-99.99,,,0.02,weatherlink.com 1.10,2013-08-07 00:31:00,
2013-08-06 20:46:00,71.3,68.0,32.13,ESE,111,0.0,-999.0,90,-99.99,,,0.02,weatherlink.com 1.10,2013-08-07 00:46:00,
2013-08-06 21:01:00,71.2,68.0,32.13,ESE,112,0.0,-999.0,90,-99.99,,,0.02,weatherlink.com 1.10,2013-08-07 01:01:00,
2013-08-06 21:16:00,71.1,68.0,32.13,ESE,112,0.0,-999.0,90,-99.99,,,0.02,weatherlink.com 1.10,2013-08-07 01:16:00,
2013-08-06 21:31:00,71.1,68.0,32.13,ESE,111,0.0,-999.0,90,-99.99,,,0.02,weatherlink.com 1.10,2013-08-07 01:31:00,
2013-08-06 21:46:00,71.1,68.0,32.13,ESE,111,0.0,-999.0,90,-99.99,,,0.02,weatherlink.com 1.10,2013-08-07 01:46:00,
2013-08-06 22:01:00,70.9,68.0,32.13,ESE,112,0.0,-999.0,90,-99.99,,,0.02,weatherlink.com 1.10,2013-08-07 02:01:00,
2013-08-06 22:16:00,70.8,68.0,32.13,ESE,112,0.0,-999.0,90,-99.99,,,0.02,weatherlink.com 1.10,2013-08-07 02:16:00,
2013-08-06 22:31:00,70.7,68.0,32.13,SE,134,0.0,-999.0,90,-99.99,,,0.02,weatherlink.com 1.10,2013-08-07 02:31:00,
2013-08-06 22:45:00,70.7,68.0,32.13,SE,131,0.0,-999.0,90,-99.99,,,0.02,weatherlink.com 1.10,2013-08-07 02:45:00,
2013-08-06 23:00:00,70.7,68.0,32.13,SE,130,0.0,-999.0,90,-99.99,,,0.02,weatherlink.com 1.10,2013-08-07 03:00:00,
2013-08-06 23:15:00,70.6,68.0,32.13,SE,130,0.0,-999.0,90,-99.99,,,0.02,weatherlink.com 1.10,2013-08-07 03:15:00,
2013-08-06 23:30:00,70.6,68.0,32.13,SE,131,0.0,-999.0,90,-99.99,,,0.02,weatherlink.com 1.10,2013-08-07 03:30:00,
2013-08-06 23:46:00,70.6,68.0,32.13,SE,130,0.0,-999.0,91,-99.99,,,0.02,weatherlink.com 1.10,2013-08-07 03:46:00,